29.2.2020 Kaasujalka ralli

Tulokset  Keskeyttäneet (34)  Rangaistukset (0)  Tilastot Lähtöluettelo  Online


 << SS6 Maali> Yleiskilpailun tulokset
Kaasujalka ralli
29.2.2020
SS 7, LUOKKATULOS
R-Rallicup
Yellow racing team
TRT-Konepaja Oy
 
Luokka 1 , Historic gr2,4, a alle 1350 60-90 vm. 2wd , Lähti:6
SS7, 11.9km, nopein: 91.4km/h
SijNumOhjaajaTulosEro
1109Ari Liimatainen €7:48,7
2111Janne Solatie €8:51,81:03,1
3113Vesa Båga9:06,91:18,2
Tulos 7 ek:n jälkeen
SijNumOhjaajaTulosEro
1109Ari Liimatainen €26:15,3
2111Janne Solatie €28:42,2 2:26,9
3113Vesa Båga30:38,8 4:23,5


Keskeyttäneet: 50, Timo Hytönen, 6A, Tekninen syy  -   110, Jari Päivärinta €, 4A, Tekninen syy  -   114, Sami Kauppinen, 5B, Ulosajo
 
Luokka 3 , F, A, HR alle 1650 2wd , Lähti:11
SS7, 11.9km, nopein: 101.6km/h
SijNumOhjaajaTulosEro
1100Marko Mansikkamäki €7:01,8
298Mikko Kurkela €7:10,58,7
3108Raimo Kovanen7:11,910,1
499Juho Nykänen €7:12,811,0
5105Pasi Martikainen7:15,213,4
6101Tomi Saari €7:15,513,7
7102Sami Jokinen €7:23,621,8
8107Santtu Pajunpää7:38,736,9
Tulos 7 ek:n jälkeen
SijNumOhjaajaTulosEro
1100Marko Mansikkamäki €23:16,5
299Juho Nykänen €23:26,4 9,9
3108Raimo Kovanen23:36,4 19,9
498Mikko Kurkela €23:48,2 31,7
5101Tomi Saari €24:09,2 52,7
6102Sami Jokinen €24:14,2 57,7
7105Pasi Martikainen24:16,5 1:00,0
8107Santtu Pajunpää25:41,7 2:25,2


Keskeyttäneet: 103, Jani Kuivas €, 4A, Tekninen syy  -   104, Oskari Jauhiainen €, 5A, Tekninen syy  -   106, Janne Harju, 5A, Tekninen syy
 
Luokka 4 , F, A, HR alle 2100 2wd , Lähti:16
SS7, 11.9km, nopein: 101.2km/h
SijNumOhjaajaTulosEro
183Miko Jalava €7:03,5
288Petteri Paavilainen7:04,91,4
395Olli Rämänen7:08,75,2
491Timo Siik7:29,025,5
586Sami Sabell7:29,225,7
690Mirco Ilminen7:38,635,1
787Mika Kylmälä7:52,849,3
897Lasse Lahikainen7:53,249,7
992juha flyktman7:59,556,0
1085Jussi Kananoja €8:23,41:19,9
1196Henry Isakoff8:27,71:24,2
Tulos 7 ek:n jälkeen
SijNumOhjaajaTulosEro
183Miko Jalava €23:33,7
295Olli Rämänen23:48,3 14,6
388Petteri Paavilainen23:56,7 23,0
497Lasse Lahikainen24:42,5 1:08,8
586Sami Sabell24:49,8 1:16,1
691Timo Siik24:55,2 1:21,5
790Mirco Ilminen25:40,6 2:06,9
887Mika Kylmälä25:55,3 2:21,6
996Henry Isakoff26:01,3 2:27,6
1092juha flyktman27:15,8 3:42,1
1185Jussi Kananoja €27:49,0 4:15,3


Keskeyttäneet: 82, Esa Ketomäki €, 4A, Tekninen syy  -   84, Kyösti Kotamäki €, 7B, Ulosajo  -   89, Teemu Rajasto, 4A, Tekninen syy  -   93, Joonas Ahokas, 4A, Ulosajo  -   94, Pasi Laitinen, 6A, Tekninen syy
 
Luokka 5 , F, A, HR yli 2100 2wd , Lähti:10
SS7, 11.9km, nopein: 93.1km/h
SijNumOhjaajaTulosEro
175Pasi Hirvikoski €7:40,3
272Jani Rihu €7:45,85,5
371Sami Ahonen €7:57,517,2
474Sami Tikkanen €8:02,121,8
576Laurell Henry8:11,030,7
Tulos 7 ek:n jälkeen
SijNumOhjaajaTulosEro
172Jani Rihu €25:02,9
275Pasi Hirvikoski €25:10,0 7,1
374Sami Tikkanen €25:53,6 50,7
471Sami Ahonen €26:02,1 59,2
576Laurell Henry27:43,2 2:40,3


Keskeyttäneet: 73, Antti Rintamäki €, 1B, Tekninen syy  -   77, Markus Minkkilä, 6B, Tekninen syy  -   78, Hannu Hautakoski, 5B, Ulosajo  -   79, Esa Puupponen, 4A, Tekninen syy  -   81, Niko Konkola, 4A, Tekninen syy
 
Luokka 6 , Senior 50 v. cc vapaa 2wd , Lähti:16
SS7, 11.9km, nopein: 99.2km/h
SijNumOhjaajaTulosEro
165Timo Nousiainen7:11,8
256Markku Tuoriniemi €7:12,20,4
353Petteri Rantanen €7:26,915,1
454Pauli Sinkkonen €7:30,618,8
558Pasi Kämäräinen €7:47,135,3
659Ilpo Saari €7:58,346,5
770Rauno Jaakkola8:13,81:02,0
860Petri Heikkilä €8:14,11:02,3
964juha kaipainen8:17,01:05,2
1067Jorma Isotalo8:22,71:10,9
1163Christer Sundholm10:25,23:13,4
Tulos 7 ek:n jälkeen
SijNumOhjaajaTulosEro
156Markku Tuoriniemi €23:49,8
265Timo Nousiainen24:00,8 11,0
353Petteri Rantanen €24:03,0 13,2
454Pauli Sinkkonen €24:20,5 30,7
558Pasi Kämäräinen €25:05,6 1:15,8
664juha kaipainen26:26,1 2:36,3
760Petri Heikkilä €26:47,7 2:57,9
859Ilpo Saari €27:04,3 3:14,5
970Rauno Jaakkola27:39,7 3:49,9
1063Christer Sundholm28:13,6 4:23,8
1167Jorma Isotalo28:18,5 4:28,7


Keskeyttäneet: 55, Timo Ahonen €, 4B, Ulosajo  -   57, Jari Muhonen €, 6A, Tekninen syy  -   66, Ari Ijäs, 6B, Tekninen syy  -   68, Tauno Rantala, 1B, Tekninen syy  -   69, Pekka Mustanoja, 5B, Tekninen syy
 
Luokka 7 , V-1600 alle 1650 gr1, N ja V1600 2wd , Lähti:10
SS7, 11.9km, nopein: 94.6km/h
SijNumOhjaajaTulosEro
143Joonas Tonteri €7:33,0
246Ari Pentinmäki7:39,16,1
351Markus Väätänen7:58,625,6
444Timo Karhinen €7:58,725,7
552Petri Riihimäki8:13,640,6
642Janne Rissanen €8:21,548,5
747Anssi Pihala8:32,459,4
848Jan Andersin8:34,21:01,2
Tulos 7 ek:n jälkeen
SijNumOhjaajaTulosEro
143Joonas Tonteri €24:46,5
246Ari Pentinmäki25:17,0 30,5
344Timo Karhinen €26:23,3 1:36,8
451Markus Väätänen26:52,5 2:06,0
542Janne Rissanen €27:10,3 2:23,8
652Petri Riihimäki27:34,1 2:47,6
747Anssi Pihala27:47,9 3:01,4
848Jan Andersin29:12,2 4:25,7


Keskeyttäneet: 45, Ilkka Manier €, 5B, Ulosajo  -   49, Markku Hytönen, 4B, Tekninen syy
 
Luokka 8 , V-2000 alle 2050 gr1, N, V2000 2wd , Lähti:5
SS7, 11.9km, nopein: 96.7km/h
SijNumOhjaajaTulosEro
137Kari Mutkala €7:23,0
238Mikko Viitanen €7:36,713,7
339Rami Härkönen €8:02,239,2
440Kristian Pannula €8:37,81:14,8
Tulos 7 ek:n jälkeen
SijNumOhjaajaTulosEro
137Kari Mutkala €24:36,2
238Mikko Viitanen €25:20,1 43,9
339Rami Härkönen €26:44,6 2:08,4
440Kristian Pannula €28:04,7 3:28,5


Keskeyttäneet: 41, Toni Ketomäki, 5B, Ulosajo
 
Luokka 9 , Nuoret V-1600 2wd , Lähti:6
SS7, 11.9km, nopein: 88km/h
SijNumOhjaajaTulosEro
1115Tomi Tiilikainen €8:06,6
2119Ville Wikström8:17,811,2
3116Aatu Hirvikoski €8:24,618,0
4120Jooa Iivari8:42,936,3
5118Luka Manninen9:10,31:03,7
Tulos 7 ek:n jälkeen
SijNumOhjaajaTulosEro
1115Tomi Tiilikainen €26:56,3
2119Ville Wikström27:32,3 36,0
3116Aatu Hirvikoski €28:12,2 1:15,9
4120Jooa Iivari33:34,7 6:38,4
5118Luka Manninen35:02,6 8:06,3


Keskeyttäneet: 117, Timo Koskinen €, 7A, Tekninen syy
 
Luokka 11 , 4wd cc vapaa Kaikki ikäkaudet , Lähti:4
SS7, 11.9km, nopein: 99.6km/h
SijNumOhjaajaTulosEro
125sami tuohinen7:10,2
226Henri Alahuhta7:51,441,2
327Timo Takala8:10,159,9
Tulos 7 ek:n jälkeen
SijNumOhjaajaTulosEro
125sami tuohinen23:32,9
226Henri Alahuhta25:32,2 1:59,3
327Timo Takala25:56,0 2:23,1


Keskeyttäneet: 23, Tatu Soisalo €, 5B, Tekninen syy
 
Luokka 12 , 4 wd A, Fin-R cc vapaa Nuotti , Lähti:5
SS7, 11.9km, nopein: 108.6km/h
SijNumOhjaajaTulosEro
13Matti Latvala6:34,5
22Tommi Rimpeläinen6:57,322,8
31Aatu Tunturi7:26,852,3
Tulos 7 ek:n jälkeen
SijNumOhjaajaTulosEro
13Matti Latvala22:28,8
22Tommi Rimpeläinen23:33,0 1:04,2
31Aatu Tunturi24:44,5 2:15,7


Keskeyttäneet: 4, Veli-Matti Saarelainen, 6A, Ulosajo  -   5, Mikko Suvinen, 5B, Ulosajo
 
Luokka 15 , F, A, HR yli 1650 2wd Nuotti , Lähti:16
SS7, 11.9km, nopein: 103.3km/h
SijNumOhjaajaTulosEro
119Marko Kinnunen6:54,8
221Tommi Hannuksela7:06,311,5
312Roman Prokhorov €7:08,513,7
411Benjamin Korhola €7:16,221,4
514Eemil Mielityinen €7:16,421,6
610Sami Saari €7:25,430,6
76Max Karhapää €7:37,442,6
817Jussi Soikkeli7:43,548,7
98Toni Piiroinen €7:45,450,6
1018Tuomo Laitila7:49,654,8
1122Vesa Rissanen8:00,21:05,4
1216Ari Halmela8:08,61:13,8
137Markku Hakkarainen €8:09,81:15,0
1415Juha Niskanen8:20,21:25,4
1513Kimmo Johansson €10:21,43:26,6
Tulos 7 ek:n jälkeen
SijNumOhjaajaTulosEro
119Marko Kinnunen23:11,5
211Benjamin Korhola €23:52,0 40,5
321Tommi Hannuksela23:53,8 42,3
46Max Karhapää €24:15,3 1:03,8
512Roman Prokhorov €24:25,2 1:13,7
610Sami Saari €24:54,8 1:43,3
718Tuomo Laitila25:28,7 2:17,2
817Jussi Soikkeli25:36,0 2:24,5
98Toni Piiroinen €25:51,1 2:39,6
1022Vesa Rissanen26:07,4 2:55,9
117Markku Hakkarainen €27:09,5 3:58,0
1215Juha Niskanen27:38,8 4:27,3
1316Ari Halmela27:42,0 4:30,5
1414Eemil Mielityinen €32:24,9 9:13,4
1513Kimmo Johansson €34:02,2 10:50,7


Keskeyttäneet: 20, Ville Jauhiainen, 7B, Tekninen syy
 
Luokka 17 , BMW orginal 2wd , Lähti:4
SS7, 11.9km, nopein: 97.1km/h
SijNumOhjaajaTulosEro
135Sami Hakonen €7:21,2
233Ville Pulkkinen €7:26,14,9
334Tero Karppi €7:48,126,9
436Kimmo Vilenius8:08,647,4
Tulos 7 ek:n jälkeen
SijNumOhjaajaTulosEro
135Sami Hakonen €24:25,5
233Ville Pulkkinen €24:59,7 34,2
334Tero Karppi €25:19,6 54,1
436Kimmo Vilenius27:10,2 2:44,7

 
Luokka 20 , Proto cc vapaa 2wd turbot , Lähti:5
SS7, 11.9km, nopein: 97km/h
SijNumOhjaajaTulosEro
129Kari Herronen €7:21,5
230Petri Katainen €7:34,212,7
328Jarno Puupponen €7:48,026,5
432Tomi Mäkinen8:04,743,2
531Aki Suni51:01,543:40,0
Tulos 7 ek:n jälkeen
SijNumOhjaajaTulosEro
129Kari Herronen €24:33,1
228Jarno Puupponen €24:49,0 15,9
330Petri Katainen €24:53,1 20,0
432Tomi Mäkinen26:24,7 1:51,6
531Aki Suni1:10:21,7 45:48,6